Virginia Beach, VA

1:47 PM EST on January 21, 2017 (GMT -0500)
Oceana NAS

Weather History for KNTU - December, 2011

Change the Weather History Date:

Sunday, December 11, 2011

  Actual Average Record
Temperature  
Mean Temperature 42 °F -  
Max Temperature 46 °F 52 °F 73 °F (2015)
Min Temperature 37 °F 36 °F 28 °F (2010)
Degree Days  
Heating Degree Days 24    
Moisture  
Dew Point 29 °F    
Average Humidity 60    
Maximum Humidity 71    
Minimum Humidity 48    
Precipitation  
Precipitation 0.00 in - - ()
Sea Level Pressure  
Sea Level Pressure 30.58 in    
Wind  
Wind Speed 12 mph (NNE)    
Max Wind Speed 17 mph    
Max Gust Speed 21 mph    
Visibility 10 miles    
Events      
Averages and records for this station are not official NWS values.
T = Trace of Precipitation, MM = Missing Value Source: NWS Daily Summary

Daily Weather History Graph

Daily Weather History Graph

Search for Another Location

Airport or City:

Trip Planner

Search our weather history database for the weather conditions in past years. The results will help you decide how hot, cold, wet, or windy it might be!

Date:

Astronomy

Dec. 11, 2011 Rise Set
Actual Time 7:06 AM EST 4:47 PM EST
Civil Twilight 6:37 AM EST 5:16 PM EST
Nautical Twilight 6:05 AM EST 5:49 PM EST
Astronomical Twilight 5:33 AM EST 6:20 PM EST
Moon 5:55 PM EST (12/11) 7:53 AM EST (12/11)
Length of Visible Light 10h 39m
Length of Day
9h 41m
Full, 99% of the Moon is Illuminated
Dec 11
Full
Dec 17
Last Quarter
Dec 24
New
Jan 1
First Quarter
Jan 9
Full

Hourly Weather History & Observations

Time (EST) Temp. Windchill Dew Point Humidity Pressure Visibility Wind Dir Wind Speed Gust Speed Precip Events Conditions
12:56 AM 39.9 °F 32.9 °F 23.0 °F 51% 30.49 in 10.0 mi NNE 11.5 mph - N/A   Partly Cloudy
1:56 AM 39.0 °F 31.0 °F 21.9 °F 50% 30.50 in 10.0 mi NNE 13.8 mph - N/A   Clear
2:56 AM 39.0 °F 31.4 °F 21.9 °F 50% 30.53 in 10.0 mi NNE 12.7 mph - N/A   Clear
3:56 AM 37.9 °F 30.0 °F 21.9 °F 53% 30.53 in 10.0 mi NNE 12.7 mph - N/A   Partly Cloudy
4:56 AM 37.0 °F 28.9 °F 21.0 °F 52% 30.55 in 10.0 mi NNE 12.7 mph - N/A   Clear
5:56 AM 37.0 °F 28.5 °F 19.0 °F 48% 30.56 in 10.0 mi NNE 13.8 mph - N/A   Clear
6:56 AM 37.0 °F 27.4 °F 23.0 °F 57% 30.58 in 10.0 mi NNE 17.3 mph - N/A   Clear
7:56 AM 37.9 °F 30.9 °F 26.1 °F 62% 30.61 in 10.0 mi North 10.4 mph - N/A   Partly Cloudy
8:56 AM 41.0 °F 34.3 °F 28.9 °F 62% 30.62 in 10.0 mi North 11.5 mph - N/A   Partly Cloudy
9:56 AM 44.1 °F 37.1 °F 30.9 °F 60% 30.63 in 10.0 mi NNE 15.0 mph 20.7 mph N/A   Partly Cloudy
10:56 AM 44.1 °F 36.8 °F 30.0 °F 58% 30.64 in 10.0 mi NNE 16.1 mph 20.7 mph N/A   Partly Cloudy
11:56 AM 45.0 °F 38.9 °F 32.0 °F 60% 30.63 in 10.0 mi NE 12.7 mph - N/A   Partly Cloudy
12:56 PM 46.0 °F 39.9 °F 32.0 °F 58% 30.61 in 10.0 mi NE 13.8 mph - N/A   Partly Cloudy
1:56 PM 45.0 °F 38.9 °F 32.0 °F 60% 30.60 in 10.0 mi NNE 12.7 mph 18.4 mph N/A   Partly Cloudy
2:56 PM 45.0 °F 38.9 °F 32.0 °F 60% 30.59 in 10.0 mi NNE 12.7 mph - N/A   Partly Cloudy
3:56 PM 44.1 °F 38.6 °F 32.0 °F 63% 30.60 in 10.0 mi NNE 10.4 mph - N/A   Partly Cloudy
4:56 PM 41.0 °F 34.7 °F 30.9 °F 67% 30.58 in 10.0 mi NNE 10.4 mph - N/A   Scattered Clouds
5:56 PM 39.9 °F 35.1 °F 30.9 °F 70% 30.59 in 10.0 mi NE 6.9 mph - N/A   Scattered Clouds
6:56 PM 43.0 °F 38.8 °F 33.1 °F 68% 30.59 in 10.0 mi NE 6.9 mph - N/A   Mostly Cloudy
7:56 PM 44.1 °F 38.6 °F 33.1 °F 65% 30.58 in 10.0 mi NE 10.4 mph - N/A   Mostly Cloudy
8:56 PM 44.1 °F 39.0 °F 33.1 °F 65% 30.58 in 10.0 mi ENE 9.2 mph - N/A   Mostly Cloudy
9:56 PM 44.1 °F 39.5 °F 33.1 °F 65% 30.58 in 10.0 mi ENE 8.1 mph - N/A   Scattered Clouds
10:56 PM 43.0 °F 37.7 °F 34.0 °F 71% 30.57 in 10.0 mi ENE 9.2 mph - N/A   Scattered Clouds
11:56 PM 44.1 °F 40.1 °F 35.1 °F 71% 30.56 in 10.0 mi NE 6.9 mph - N/A   Scattered Clouds